User: anonymous   Login
Location: Unspecified
(0.0000°N, 0.0000°E)
Time: 23:28:24
(UTC+00:00)
Language:

OFEQ 7 - Orbit

View from above orbital plane
View from above orbital plane
View from above satellite
View from above satellite

Ground track
Ground track

The orbit data is extracted from the following two-line orbital elements,

1 31601U 07025A   18028.20897981 0.00002100  00000-0  84376-4 0    06
2 31601 141.7043 324.5743 0005818 272.0525  87.9468 15.24038105    07
Epoch (UTC): 28 January 2018 05:00:55
Eccentricity: 0.0005818
inclination: 141.7043°
perigee height: 489 km
apogee height: 497 km
right ascension of ascending node: 324.5743°
argument of perigee: 272.0525°
revolutions per day: 15.24038105
mean anomaly at epoch: 87.9468°
orbit number at epoch: 0

The dashed part of the orbit path shows where the satellite is in the earth's shadow,  

DLR